Date String (YYYY-MM-DD hh:mm:ss) UTC,Instrument flags,Ambient pressure (hPa),Sample flow (lpm),Bypass flow (lpm),Sample temperature (°C),Ambient temperature (°C),ASC tube jacket temperature (°C),LED temperature (°C),Box temperature (°C),Sample RH (%),Span deviation,Mass concentration (μg/m³),Mass concentration (μg/m³),Mass concentration (μg/m³)
DateTimeUTC,F1_M11,P_M11,Q1_M11,Q2_M11,T1_M11,T2_M11,T3_M11,T4_M11,T5_M11,U1_M11,ZSPAN_M11,X2_M11,X0_M11,X1_M11
2023-02-11 15:00:00,,0826.5,4.96,0.00,22.2,23.2,00.0,30.8,24.3,09.6,0000.0,0002.10,0004.39,0001.61
2023-02-11 15:01:00,,0826.5,5.06,0.00,22.2,22.6,00.0,30.9,24.2,09.5,0000.0,0002.12,0004.23,0001.64
2023-02-11 15:02:00,,0826.5,4.95,0.00,22.3,22.1,00.0,30.9,24.2,09.5,0000.0,0002.18,0004.37,0001.65
2023-02-11 15:03:00,,0826.5,5.06,0.00,22.3,21.7,00.0,31.0,24.1,09.2,0000.0,0002.19,0004.35,0001.66
2023-02-11 15:04:00,,0826.5,4.94,0.00,22.3,21.4,00.0,31.0,24.1,09.2,0000.0,0002.18,0004.33,0001.66
2023-02-11 15:05:00,,0826.5,5.03,0.00,22.3,21.2,00.0,31.0,24.0,09.2,0000.0,0002.21,0005.37,0001.69
2023-02-11 15:06:00,,0826.5,4.97,0.00,22.3,21.1,00.0,31.0,24.0,09.3,0000.0,0002.26,0005.46,0001.72
2023-02-11 15:07:00,,0826.5,4.98,0.00,22.2,21.0,00.0,31.0,23.9,09.2,0000.0,0002.31,0005.24,0001.75
2023-02-11 15:08:00,,0826.5,5.02,0.00,22.2,20.8,00.0,31.0,23.9,08.8,0000.0,0002.32,0004.88,0001.77
2023-02-11 15:09:00,,0826.5,5.00,0.00,22.2,20.7,00.0,31.0,23.9,09.0,0000.0,0002.41,0005.03,0001.81
2023-02-11 15:10:00,,0826.5,5.00,0.00,22.2,20.6,00.0,31.0,23.9,09.1,0000.0,0002.47,0005.21,0001.84
2023-02-11 15:11:00,,0826.5,4.99,0.00,22.2,20.5,00.0,31.0,23.8,09.0,0000.0,0002.49,0005.18,0001.87
2023-02-11 15:12:00,,0826.5,4.99,0.00,22.1,20.5,00.0,31.0,23.8,09.0,0000.0,0002.52,0005.22,0001.87
2023-02-11 15:13:00,,0826.5,4.99,0.00,22.1,20.4,00.0,31.0,23.8,08.9,0000.0,0002.55,0005.34,0001.89
2023-02-11 15:14:00,,0826.5,5.02,0.00,22.1,20.3,00.0,31.0,23.7,09.1,0000.0,0002.56,0005.42,0001.92
2023-02-11 15:15:00,,0826.5,5.01,0.00,22.1,20.3,00.0,31.0,23.7,09.0,0000.0,0002.58,0005.43,0001.95
2023-02-11 15:16:00,,0826.5,5.02,0.00,22.0,20.2,00.0,31.0,23.6,09.3,0000.0,0002.60,0004.74,0001.97
2023-02-11 15:17:00,,0826.5,5.03,0.00,22.0,20.2,00.0,31.0,23.6,09.1,0000.0,0002.59,0004.90,0001.96
2023-02-11 15:18:00,,0826.5,5.01,0.00,22.0,20.1,00.0,31.0,23.6,09.0,0000.0,0002.57,0004.84,0001.95
2023-02-11 15:19:00,,0826.4,4.97,0.00,21.9,20.1,00.0,30.9,23.5,09.1,0000.0,0002.59,0004.92,0001.94
2023-02-11 15:20:00,,0826.5,5.02,0.00,21.9,20.0,00.0,30.9,23.4,09.0,0000.0,0002.59,0004.95,0001.93
2023-02-11 15:21:00,,0826.4,5.01,0.00,21.8,19.9,00.0,30.9,23.4,09.2,0000.0,0002.54,0004.74,0001.92
2023-02-11 15:22:00,,0826.4,4.98,0.00,21.8,20.3,00.0,30.8,23.4,09.2,0000.0,0002.50,0004.72,0001.90
2023-02-11 15:23:00,,0826.4,4.97,0.00,21.9,22.1,00.0,30.8,23.9,09.1,0000.0,0002.48,0004.82,0001.88
2023-02-11 15:24:00,,0826.4,5.01,0.00,22.1,22.5,00.0,30.9,24.1,09.3,0000.0,0002.44,0005.33,0001.86
2023-02-11 15:25:00,,0826.4,4.97,0.00,22.1,22.1,00.0,30.9,24.1,09.2,0000.0,0002.39,0005.21,0001.83
2023-02-11 15:26:00,,0826.5,4.94,0.00,22.2,21.7,00.0,30.9,24.0,09.1,0000.0,0002.39,0005.32,0001.81
2023-02-11 15:27:00,,0826.5,5.03,0.00,22.2,21.4,00.0,31.0,24.0,09.3,0000.0,0002.39,0005.50,0001.78
2023-02-11 15:28:00,,0826.5,5.04,0.00,22.2,21.2,00.0,31.0,24.0,09.3,0000.0,0002.30,0004.96,0001.74
2023-02-11 15:29:00,,0826.4,5.03,0.00,22.2,21.1,00.0,31.0,24.0,09.0,0000.0,0002.26,0004.94,0001.71
2023-02-11 15:30:00,,0826.3,4.97,0.00,22.2,21.0,00.0,31.0,23.9,08.8,0000.0,0002.17,0004.69,0001.67
2023-02-11 15:31:00,,0826.2,5.04,0.00,22.2,20.9,00.0,31.0,23.9,08.8,0000.0,0002.06,0004.42,0001.63
2023-02-11 15:32:00,,0826.3,4.99,0.00,22.2,20.8,00.0,31.0,23.9,08.8,0000.0,0002.05,0004.48,0001.59
2023-02-11 15:33:00,,0826.4,5.00,0.00,22.2,20.7,00.0,31.0,23.9,08.7,0000.0,0002.01,0004.32,0001.57
2023-02-11 15:34:00,,0826.2,5.02,0.00,22.2,20.6,00.0,31.0,23.9,08.5,0000.0,0001.96,0004.07,0001.57
2023-02-11 15:35:00,,0826.4,5.01,0.00,22.2,20.6,00.0,31.0,23.9,08.7,0000.0,0001.92,0003.51,0001.55
2023-02-11 15:36:00,,0826.6,5.03,0.00,22.1,20.5,00.0,31.0,23.8,08.9,0000.0,0001.86,0003.45,0001.53
2023-02-11 15:37:00,,0826.2,5.02,0.00,22.1,20.5,00.0,31.0,23.8,08.6,0000.0,0001.79,0003.31,0001.48
2023-02-11 15:38:00,,0826.3,4.99,0.00,22.1,20.5,00.0,31.0,23.8,08.8,0000.0,0001.74,0003.13,0001.45
2023-02-11 15:39:00,,0826.3,5.02,0.00,22.1,20.5,00.0,31.0,23.8,08.7,0000.0,0001.73,0003.12,0001.42
2023-02-11 15:40:00,,0826.3,5.00,0.00,22.1,20.4,00.0,31.0,23.8,09.0,0000.0,0001.68,0002.92,0001.40
2023-02-11 15:41:00,,0826.4,4.98,0.00,22.1,20.4,00.0,31.0,23.8,08.8,0000.0,0001.68,0002.92,0001.39
2023-02-11 15:42:00,,0826.3,4.98,0.00,22.1,20.4,00.0,31.0,23.8,08.8,0000.0,0001.69,0003.03,0001.38
2023-02-11 15:43:00,,0826.3,5.03,0.00,22.1,20.4,00.0,31.0,23.8,09.0,0000.0,0001.63,0002.89,0001.37
2023-02-11 15:44:00,,0826.3,5.01,0.00,22.1,20.4,00.0,31.0,23.8,08.8,0000.0,0001.58,0002.77,0001.36
2023-02-11 15:45:00,,0826.2,5.00,0.00,22.1,20.4,00.0,31.0,23.8,08.8,0000.0,0001.56,0002.75,0001.32
2023-02-11 15:46:00,,0826.2,5.01,0.00,22.1,20.4,00.0,30.9,23.8,09.0,0000.0,0001.56,0002.73,0001.31
2023-02-11 15:47:00,,0826.2,4.97,0.00,22.1,20.4,00.0,30.9,23.8,08.6,0000.0,0001.55,0002.57,0001.28
2023-02-11 15:48:00,,0826.2,4.98,0.00,22.1,20.5,00.0,30.9,23.8,08.9,0000.0,0001.54,0002.58,0001.28
2023-02-11 15:49:00,,0826.1,5.01,0.00,22.1,20.5,00.0,30.9,23.8,09.1,0000.0,0001.53,0002.45,0001.28
2023-02-11 15:50:00,,0826.1,4.99,0.00,22.1,20.5,00.0,30.9,23.9,09.2,0000.0,0001.53,0002.42,0001.29
2023-02-11 15:51:00,,0826.2,5.00,0.00,22.1,20.5,00.0,30.9,23.8,09.6,0000.0,0001.55,0002.49,0001.29
2023-02-11 15:52:00,,0826.2,4.99,0.00,22.1,20.5,00.0,30.9,23.8,09.8,0000.0,0001.56,0002.52,0001.29
2023-02-11 15:53:00,,0826.2,5.02,0.00,22.1,20.5,00.0,30.9,23.8,10.0,0000.0,0001.60,0002.57,0001.30
2023-02-11 15:54:00,,0826.2,5.00,0.00,22.1,20.6,00.0,30.9,23.9,09.9,0000.0,0001.60,0002.55,0001.29
2023-02-11 15:55:00,,0826.2,5.00,0.00,22.1,20.6,00.0,30.9,23.9,10.2,0000.0,0001.63,0002.65,0001.29
2023-02-11 15:56:00,,0826.2,5.01,0.00,22.1,20.7,00.0,30.9,23.9,09.9,0000.0,0001.70,0002.78,0001.31
2023-02-11 15:57:00,,0826.2,5.01,0.00,22.1,20.7,00.0,30.9,24.0,09.1,0000.0,0001.68,0003.27,0001.30
2023-02-11 15:58:00,,0826.2,5.00,0.00,22.1,20.8,00.0,30.9,24.0,09.4,0000.0,0001.68,0004.83,0001.30
2023-02-11 15:59:00,,0826.2,4.96,0.00,22.1,20.8,00.0,30.9,24.0,09.4,0000.0,0001.70,0004.88,0001.30
